Regional Weather Roundup
Issued by NWS Little Rock, AR

Home | Current Version | Previous Version | Graphics & Text | Print | Product List | Glossary On
Versions: 1 2 3 4 5 6 7 8 9 10 11 12 13 14 15 16 17 18 19 20 21 22 23 24 25 26 27 28 29 30 31 32 33 34 35 36 37 38 39 40 41 42 43 44 45
000
ASUS44 KLZK 311605
RWRLZK

WEATHER ROUNDUP FOR ARKANSAS
NATIONAL WEATHER SERVICE LITTLE ROCK AR
1100 AM CDT FRI JUL 31 2015

NOTE: "FAIR" INDICATES FEW OR NO CLOUDS BELOW 12,000 FEET WITH NO
SIGNIFICANT WEATHER AND/OR OBSTRUCTIONS TO VISIBILITY.

ARZ001-003-010-029-311700-
NORTHWEST ARKANSAS

CITY           SKY/WX    TMP DP  RH WIND       PRES   REMARKS
FAYETTEVILLE   MOSUNNY   81  64  56 W3        30.20R
FORT SMITH     MOSUNNY   84  62  47 SE9       30.15S HX  85
HARRISON       PTSUNNY   81  61  50 E3        30.20S
BENTONVILLE    MOSUNNY   82  59  44 SE6       30.21S
ROGERS         MOSUNNY   82  60  47 SE8       30.21S
SILOAM SPGS    PTSUNNY   81  63  54 W7        30.19S
HIGHFILL       CLOUDY    84  63  49 VRB3      30.20S HX  85
SPRINGDALE     PTSUNNY   81  63  54 S5        30.22S
$$

ARZ004-005-016-311700-
NORTH CENTRAL ARKANSAS

CITY           SKY/WX    TMP DP  RH WIND       PRES   REMARKS
BATESVILLE     SUNNY     84  66  54 CALM      30.15S HX  86
FLIPPIN        SUNNY     82  66  57 CALM      30.16R HX  85
MTN HOME       SUNNY     83  67  58 CALM      30.17S HX  85
$$

ARZ040-041-311700-
WEST CENTRAL ARKANSAS

CITY           SKY/WX    TMP DP  RH WIND       PRES   REMARKS
MENA           PTSUNNY   82  68  61 NE7       30.18S HX  85
MOUNT IDA      MOSUNNY   85  64  49 VRB3      30.14S HX  86
$$

ARZ009-017-025-026-028-311700-
NORTHEAST ARKANSAS

CITY           SKY/WX    TMP DP  RH WIND       PRES   REMARKS
JONESBORO      SUNNY     84  68  58 NE9       30.12F HX  87
NEWPORT        SUNNY     84  69  60 NE8       30.15R HX  87
WALNUT RIDGE   SUNNY     84  66  54 N7        30.13S HX  86
BLYTHEVILLE    SUNNY     85  70  60 NE13      30.12S HX  89
$$

ARZ022-023-033-042-044-311700-
CENTRAL ARKANSAS

CITY           SKY/WX    TMP DP  RH WIND       PRES   REMARKS
LITTLE ROCK    PTSUNNY   88  62  41 E10       30.13S HX  88
N LITTLE ROCK  PTSUNNY   91  61  36 E10G16    30.13S HX  91
JACKSONVILLE   SUNNY     88  60  38 NE9       30.13R HX  88
SEARCY         MOSUNNY   87  64  46 NE7       30.15R HX  88
HOT SPRINGS    SUNNY     88  57  34 E9        30.14S HX  87
RUSSELLVILLE   CLOUDY    82  65  56 CALM      30.15S
CLINTON        FAIR      86  66  51 CALM      30.16S HX  88
$$

ARZ036-311700-
EAST ARKANSAS

CITY           SKY/WX    TMP DP  RH WIND       PRES   REMARKS
WEST MEMPHIS   SUNNY     87  67  51 N15       30.10S HX  90
$$

ARZ050-053-066-070-073-311700-
SOUTHWEST ARKANSAS

CITY           SKY/WX    TMP DP  RH WIND       PRES   REMARKS
ARKADELPHIA    FAIR      89  64  43 NE8       30.13R HX  90
CAMDEN         SUNNY     86  59  39 E10G16    30.11S HX  85
TEXARKANA      SUNNY     85  64  49 E9        30.12S HX  86
EL DORADO      LGT RAIN  86  61  42 E15G24    30.11S HX  86
DE QUEEN       SUNNY     86  67  52 E7        30.12S HX  89
$$

ARZ056-057-069-311700-
SOUTHEAST ARKANSAS

CITY           SKY/WX    TMP DP  RH WIND       PRES   REMARKS
PINE BLUFF     SUNNY     85  65  51 E12       30.12R HX  86
STUTTGART      SUNNY     86  64  48 MISG      30.12R HX  87
MONTICELLO     SUNNY     86  66  51 NE13G18   30.10S HX  88

$$





USA.gov is the U.S. government's official web portal to all federal, state and local government web resources and services.